Total_Precipitation_Accumulation
3.42 3.53 3.64 3.81 3.52 3.55 3.97 4.15 3.92 4.04 4.00 3.70 3.40 3.08 2.95 2.76 2.68 2.71 2.84 2.86 2.76 2.87 3.18 3.33 3.15 3.01 2.79 2.49 2.30 2.23 2.18 2.06 1.96 1.74 1.59 1.70 1.89 1.84 1.58 1.43 1.42 1.28 1.21
3.73 3.91 3.83 3.94 3.71 3.47 3.66 3.89 3.89 4.54 4.38 4.21 3.72 3.35 3.24 3.15 2.94 2.88 2.96 3.17 2.96 2.73 2.87 3.31 3.44 3.33 3.19 2.91 2.65 2.44 2.34 2.25 1.98 1.61 1.49 1.52 1.70 1.81 1.70 1.57 1.42 1.29 1.14
3.70 3.92 4.11 4.07 3.81 3.56 3.76 3.92 4.14 4.45 4.24 4.07 3.81 3.60 3.44 3.34 3.09 2.97 3.20 3.44 3.15 2.96 2.89 3.06 3.37 3.57 3.66 3.65 3.33 2.90 2.52 2.24 2.02 1.74 1.54 1.45 1.57 1.67 1.61 1.59 1.49 1.31 1.15
3.73 3.94 3.87 3.77 3.85 3.75 3.97 4.27 4.40 4.49 4.41 4.22 3.98 3.62 3.40 3.44 3.00 2.91 2.99 3.08 3.15 2.89 3.07 3.32 3.52 3.58 3.81 3.97 3.92 3.78 3.30 2.69 2.29 1.95 1.68 1.55 1.58 1.57 1.52 1.54 1.53 1.36 1.16
3.53 3.75 3.73 3.83 3.89 3.89 3.94 3.63 4.22 4.28 4.41 4.28 3.65 3.44 3.13 3.16 3.07 2.75 2.75 2.59 2.71 2.77 2.80 2.92 3.21 3.33 3.82 4.21 4.37 4.42 4.25 3.60 2.85 2.40 2.20 2.01 1.90 1.71 1.56 1.54 1.55 1.47 1.30
3.47 3.70 3.70 3.83 3.85 3.95 3.99 3.94 4.25 4.23 4.09 4.07 3.31 3.18 3.05 2.80 2.73 2.68 2.47 2.43 2.52 2.39 2.49 2.72 3.06 2.84 3.32 3.78 3.97 4.32 4.62 4.41 3.77 3.26 3.02 2.82 2.60 2.25 1.91 1.78 1.75 1.71 1.55
3.55 3.91 3.80 4.14 4.04 3.84 3.80 3.89 4.18 4.11 3.83 3.89 3.90 3.41 2.80 2.47 2.51 2.40 2.47 2.56 2.39 2.43 2.68 3.04 3.15 2.95 2.73 2.86 2.93 3.32 4.15 4.77 4.65 4.19 3.80 3.44 3.23 2.96 2.40 2.20 2.12 2.01 1.88
3.49 3.51 3.90 3.84 3.89 4.04 3.94 3.90 4.12 3.95 3.54 3.71 4.02 4.00 3.28 3.05 2.57 2.07 2.32 2.45 2.52 2.76 2.83 2.85 3.16 3.27 2.96 3.10 2.54 2.48 3.31 4.37 4.91 4.90 4.44 3.97 3.66 3.44 3.04 2.86 2.59 2.27 2.10
3.16 3.32 3.47 3.65 3.99 3.88 3.90 3.95 3.87 3.80 3.55 3.53 3.72 4.07 3.65 3.20 2.69 2.15 2.06 2.33 2.68 2.88 2.81 2.88 2.96 3.13 3.20 3.46 3.30 2.82 2.71 3.07 3.99 4.89 4.96 4.51 3.93 3.54 3.41 3.43 3.22 2.77 2.42
3.12 3.16 3.29 3.47 3.64 3.44 3.50 3.18 3.30 3.60 3.75 3.48 3.59 3.54 3.46 3.36 3.26 2.71 2.30 2.29 2.56 2.74 2.90 2.82 2.91 3.06 3.31 3.75 3.80 3.27 2.81 2.57 2.93 3.99 4.83 4.93 4.45 3.95 3.86 4.00 4.11 3.74 3.11
3.13 3.08 3.10 3.19 3.21 3.05 3.11 3.04 3.26 3.27 3.28 3.29 3.40 3.48 3.58 3.53 3.33 3.17 2.81 2.69 2.60 2.36 2.43 2.58 2.78 2.93 3.16 3.59 3.79 3.42 3.27 2.96 2.82 3.04 3.68 4.28 4.44 4.28 4.07 4.16 4.52 4.64 4.24
2.97 2.88 2.82 2.87 2.89 2.87 2.92 2.96 3.10 3.00 3.05 3.21 3.27 3.31 3.49 3.50 3.53 3.53 3.01 2.78 2.57 2.10 2.07 2.07 2.29 2.54 2.94 3.29 3.17 3.24 3.13 2.88 2.69 2.67 2.76 3.19 3.56 3.78 3.88 4.12 4.61 5.10 5.20
2.47 2.58 2.49 2.62 2.65 2.70 2.75 2.85 2.93 2.88 3.02 3.19 3.11 3.18 3.25 3.19 3.33 3.45 3.33 2.86 2.57 2.19 2.25 2.20 2.18 2.38 2.51 2.91 2.97 2.88 2.63 2.53 2.32 2.24 2.20 2.36 2.63 2.88 3.12 3.46 3.99 4.57 5.00
2.10 2.32 2.45 2.47 2.46 2.49 2.59 2.85 2.68 2.72 2.93 2.96 2.87 3.30 3.17 2.93 3.07 3.16 3.32 3.43 3.03 2.61 2.61 2.46 2.34 2.34 2.45 2.65 2.65 2.59 2.32 2.25 2.00 1.87 1.79 1.78 1.80 1.94 2.17 2.47 2.87 3.20 3.56
2.09 2.17 2.21 2.32 2.43 2.57 2.75 2.92 2.75 2.84 3.08 2.95 3.06 3.33 3.18 3.02 3.02 3.00 3.28 3.60 3.63 3.20 2.86 2.64 2.44 2.35 2.31 2.26 2.36 2.18 2.16 2.18 1.96 1.80 1.67 1.56 1.50 1.47 1.56 1.71 1.95 2.20 2.41
2.13 2.01 1.97 2.05 2.13 2.25 2.45 2.63 2.54 2.68 2.94 2.91 2.96 3.09 3.05 2.97 3.18 3.17 3.27 3.54 3.76 3.69 3.07 2.80 2.68 2.36 2.39 2.01 2.18 2.06 2.02 2.01 1.79 1.66 1.57 1.53 1.50 1.48 1.47 1.49 1.58 1.73 1.92
2.07 2.00 1.97 1.98 1.97 1.93 2.02 2.19 2.21 2.47 2.52 2.55 2.53 2.63 2.62 2.86 3.05 3.01 3.19 3.35 3.60 3.86 3.41 3.10 3.13 2.84 2.79 2.51 2.27 2.06 1.82 1.77 1.63 1.60 1.47 1.40 1.39 1.38 1.41 1.39 1.37 1.44 1.56
1.84 1.94 1.99 1.91 1.80 1.84 1.98 1.98 2.04 2.31 2.42 2.40 2.41 2.51 2.38 2.60 2.74 2.80 3.01 3.15 3.42 3.85 3.67 3.34 3.26 3.13 3.00 2.77 2.54 2.29 1.82 1.58 1.59 1.69 1.52 1.38 1.32 1.29 1.32 1.31 1.25 1.23 1.26
1.68 1.76 1.80 1.75 1.72 1.85 2.06 2.15 2.26 2.34 2.25 2.23 2.22 2.16 2.10 2.31 2.37 2.57 2.74 2.75 2.96 3.39 3.47 3.14 2.99 3.21 3.08 2.87 2.89 2.52 2.19 2.08 1.60 1.60 1.52 1.35 1.28 1.22 1.21 1.26 1.25 1.19 1.17
1.64 1.71 1.78 1.90 1.96 1.97 1.94 1.98 2.13 2.27 2.25 2.09 1.95 1.85 1.88 2.06 2.07 2.24 2.31 2.50 2.72 2.86 3.08 3.02 2.89 2.99 3.01 2.94 3.10 2.86 2.65 2.46 2.06 1.68 1.68 1.44 1.31 1.25 1.20 1.18 1.20 1.23 1.26
1.58 1.77 2.00 2.10 2.08 1.97 1.82 1.93 2.04 1.95 1.96 1.85 1.71 1.59 1.53 1.55 1.63 1.82 1.77 2.06 2.37 2.49 2.58 2.72 2.73 2.81 3.01 3.16 3.01 2.99 2.83 2.64 2.42 2.18 2.13 1.72 1.41 1.23 1.20 1.20 1.23 1.29 1.34
1.64 1.81 1.86 1.89 1.83 1.64 1.78 1.70 1.62 1.64 1.67 1.67 1.68 1.66 1.49 1.39 1.39 1.46 1.48 1.56 1.80 1.95 2.17 2.44 2.52 2.58 2.81 3.09 3.17 3.16 3.05 2.82 2.58 2.39 2.51 2.44 2.05 1.75 1.52 1.27 1.27 1.30 1.38
1.74 1.73 1.67 1.69 1.71 1.82 1.71 1.49 1.42 1.40 1.52 1.60 1.66 1.64 1.38 1.26 1.34 1.29 1.39 1.39 1.47 1.56 1.68 1.95 2.09 2.12 2.39 2.73 3.09 3.13 3.19 2.99 2.74 2.68 2.77 2.78 2.84 2.57 1.97 1.60 1.53 1.34 1.40
1.84 1.76 1.59 1.59 1.62 1.60 1.58 1.41 1.43 1.32 1.36 1.47 1.56 1.61 1.60 1.55 1.45 1.49 1.52 1.43 1.31 1.34 1.38 1.34 1.45 1.71 1.93 2.22 2.64 2.79 3.06 3.22 3.04 2.93 2.98 3.02 3.04 3.24 2.71 2.14 1.99 1.72 1.63
1.79 1.85 1.76 1.68 1.64 1.63 1.60 1.45 1.46 1.38 1.44 1.48 1.59 1.62 1.61 1.54 1.54 1.52 1.51 1.50 1.36 1.31 1.30 1.31 1.30 1.46 1.69 1.84 2.15 2.48 2.77 2.98 3.04 3.10 3.20 3.26 3.15 3.30 3.55 3.05 2.35 2.02 1.75
2.03 2.09 1.98 1.89 1.91 1.94 1.99 1.79 1.69 1.52 1.51 1.54 1.67 1.67 1.59 1.51 1.60 1.49 1.36 1.42 1.42 1.45 1.50 1.45 1.45 1.49 1.52 1.68 1.97 2.22 2.50 2.80 2.83 2.91 2.79 2.81 2.82 2.98 3.39 3.51 3.08 2.43 1.99